User: anonymous   Login
Location: Unspecified
(0.0000°N, 0.0000°E)
Time: 22:56:18
(UTC+00:00)
Language:

UNISAT 5 - Orbit

View from above orbital plane
View from above orbital plane
View from above satellite
View from above satellite

Ground track
Ground track

The orbit data is extracted from the following two-line orbital elements,

1 39421U 13066F   18344.82236078  .00000168  00000-0  24149-4 0  9990
2 39421  97.5699  24.5850 0029741 244.9709 114.8420 14.87643394274178
Epoch (UTC): 10 December 2018 19:44:11
Eccentricity: 0.0029741
inclination: 97.5699°
perigee height: 584 km
apogee height: 626 km
right ascension of ascending node: 24.5850°
argument of perigee: 244.9709°
revolutions per day: 14.87643394
mean anomaly at epoch: 114.8420°
orbit number at epoch: 27417

The dashed part of the orbit path shows where the satellite is in the earth's shadow,  

DLR